DELTA 1 DEB, 40771

Orbit data source: Space-Track

DELTA 1 DEB, 40771 is space debris in SSO originally from a launch on Thu, 29 Jul 1976 UTC launched from the Air Force Western Test Range (AFWTR). Debris objects in space refer to the collection of defunct objects orbiting the Earth. Examples of debris include non-operational satellites, rocket bodies, and fragments generated from explosions, collisions, or faulty payload assembly.

Loading next visibility...
Identifier
40771, 1976-077GQ
Orbit
SSO
Country
Flag of USUS
Related business
Manufacturer
Unknown
Mission
Spacecraft
Bus & Motor
Unknown
Mass
Unknown
Launch date (UTC)
1976-07-29 (50 years ago)
Launch vehicle
Unknown
Launch site
Air Force Western Test Range (AFWTR)
Object type
Payload
Rocket body
Debris
Shape & HBR
Unknown shape, 0.1 m
Radar Cross Section
Small (<0.1 m²)

Expand to show TLE details & history
Last TLE update: 23 hours ago

TLE from 23 hours ago
0 DELTA 1 DEB
1 40771U 76077GQ  26103.90474056  .00000023  00000-0  51111-3 0  9990
2 40771 102.1959  84.7236 0013957 340.2191  47.5321 12.40091665530771
Epoch: 2026-04-13T21:42Z
TLE epoch observation values (Epoch: 2026-04-13T21:42:49.584Z)
Latitude
27.22592°
Longitude
-89.42483°
Altitude
1,501.798 km
Speed
7.119 km/s
True Right ascension
05h 13m 28s
True Declination
27° 05' 58"
Sunlit
Object was in daylight at epoch
Visualization orbit readout
Latitude
Unknown
Longitude
Unknown
Altitude
Unknown
Speed
Unknown
Apparent Right ascension
Unknown
Apparent Declination
Unknown
Sunlit
N/A
Visualization observer readout
Local Sidereal Time
03:30:34
Azimuth
Unknown
Elevation
Unknown
Doppler factor
Unknown
Orbital elements
Apogee altitude
1,514.802 km
Perigee altitude
1,492.8 km
Semi-major axis
7,881.938 km
Eccentricity
0.0014
Inclination
102.1959°
RAAN
84.7236°
Arg. of periapsis
340.2191°
True anomaly
47.65022°
Mean anomaly
47.5321°
Eccentric anomaly
47.59114°
Mean motion
3.10166 °/min
Orbital period
116.07 mins
BSTAR
0.00051111
Loading maneuver chart data...
Computing Atmospheric mass density...
Loading historical data...
Loading historical data...
Loading historical data...
Loading historical data...
Loading historical data...
Loading historical data...
Loading historical data...

Documentation

Showing up to 5 results
|